Starlink 31984

operational
NORAD ID: 60018 Int'l Des: 2024-111 Owner: SPXS Country: US Constellation: starlink
LEOCIRCULAR

About Starlink 31984

Description loading...

Live Position

Loading 3D Globe...

Upcoming Passes

Altitude History

Altitude vs Time

uPlot chart will show altitude changes over time

Two-Line Element Set

1 60018U 24111C 25259.44674007 -.00002681 00000-0 -78500-4 0 9992
2 60018 53.1597 165.1439 0001143 92.1511 267.9620 15.30171844 72201
Epoch: Sep 16, 2025 • Age: 15 hours

Current Status

Altitude 475.2 km
Velocity 7.63 km/s
Sub-Earth Point 10.52°N, 45.26°W
Launch Date Jun 8, 2024
Age 1.2 years
Type internet

Technical Details

Classification Payload
Mass 730.00 kg
Dry Mass 700.00 kg
Total Mass 730.00 kg
Length 0.30 m
Diameter 4.10 m
Span 29.00 m
Shape Box + pan
Manufacturer SPXS
Bus Type Starlink V2M
Phase Status In Orbit
Owner/State SPXS/US

Large Constellations

Loading constellations...